Location: Henau
(47.4548°N, 9.1164°E)
Time: 07:58:11
(UTC+00:00)

FALCON 9 DEB - Pass Details

Date: 03 March 2021
Orbit: 424 x 435 km, 53.0° (Epoch: 12 April)

Event Time Altitude Azimuth Distance (km) Brightness Sun altitude
Rises 18:20:38 0° 298° (WNW) 2,405 8.2 -12.4°
Reaches altitude 10° 18:22:45 10° 300° (WNW) 1,533 7.0 -12.8°
Maximum altitude 18:26:12 77° 26° (NNE) 444 3.0 -13.4°
Enters shadow 18:28:01 25° 110° (ESE) 894 4.1 -13.7°
